Friday, August 22, 2014
11:52 UTC
  |  Log In   |  Register Free
Airport Search:

Enterprise Municipal Airport
(KEDN)

Enterprise Municipal Airport Diagram
No Airport Diagram Available

FAA data valid effective July 24, 2014 until September 18, 2014 (unless otherwise noted).

 
 
 
 
 
 
 
 
 
 
 
 
 
 

Current Aviation Weather for Enterprise Municipal Airport (KEDN)

The most recent METAR observation for KLOR was updated at: 1853 UTC
METAR Summary (Translated METAR)
KLOR
281853Z AUTO 27010KT 10SM SCT044 BKN055 BKN070 35/22 A2994 RMK AO2 SLP132 T03500222 TSNO $
KOZR
(5.2 nm SE from KLOR)
281758Z AUTO 26009KT 210V280 10SM FEW042 SCT160 SCT210 34/24 A2998 RMK AO2 SLP151 T03370238 10337 20251 58010
TAF Summary (Translated TAF)
KOZR
(5.2 nm SE from KLOR)
2209/2314 VRB06KT 8000 BR SCT030 QNH3000INS BECMG 2214/2215 26009KT 9999 NSW SCT040 QNH2999INS BECMG 2300/2301 VRB06KT 9999 BKN040 QNH3003INS TX36/2221Z TN24/2308Z AMD 220952
KDHN
(15.6 nm SE from KLOR)
220520Z 2206/2306 00000KT P6SM SCT050 SCT250 FM221400 30006KT P6SM SCT040 FM230400 29004KT P6SM SCT250
  Airport Weather Conditions for KEDN

Current weather conditions are
not available for EDN


The nearest NOAA weather station
is at LOR, (8.3 nm NE from EDN)
  
 Current Weather at LOR
74° F
Fair
North winds at 0.0 mph
LOR NOAA Radar

Pressure: 30.06 in
Humidity: 94%
Wind: Calm
Dew Point: 72.0°F
Visibility: 7.00 mi


Airport Weather Forecast for KEDN

Translated METAR and TAF for KLOR
Translated METAR for KLOR (1146 UTC 22 August 2014)
found at http://aviationweather.gov/adds/metars/
 
METAR text: KLOR 221053Z AUTO 00000KT 5SM BR CLR 23/22 A3007 RMK AO2 SLP178 T02280217 TSNO $
Conditions at: KLOR (LOWE AHP/FT. RUC, AL, US) observed 1053 UTC 22 August 2014
Temperature: 22.8°C (73°F)
Dewpoint: 21.7°C (71°F) [RH = 94%]
Pressure (altimeter): 30.07 inches Hg (1018.4 mb)
[Sea-level pressure: 1017.8 mb]
Winds: calm
Visibility: 5 miles (8 km)
Ceiling: at least 12,000 feet AGL
Clouds: sky clear below 12,000 feet AGL
Weather: BR  (mist)
SOME DATA ABOVE MAY BE INACCURATE!!!
"$" is an indication the sensor requires maintenance
Translated TAF for KLOR

There is no translated TAF available for this airport

Find All Airport Services Find A Hotel Find A Rental Car Find A Golf Course Find A Restaurant $100 Hamburger



FBO's on the Field
FBO Company Facility Photos Services Transportation Aviation Fuel Prices: Prices include tax
Catering Weather Repair Courtesy Rental Type 100LL JetA JetA+ MOGAS 8087
 
Enterprise Municipal Airport

This FBO has not yet been rated
FS:Epic
Last Updated: Aug-20
Login to update fuel prices
SS:
Contact Enterprise Municipal AirportMore FBO Information
 
Add another FBO Facility Photos Catering Weather Repair Courtesy Rental Type 100LL JetA JetA+ MOGAS 8087
Services Transportation Aviation Fuel Prices: Prices include tax


GlobalAir.com Airport Resource Center model-print
model-print
model-print
model-print